Regional Weather Roundup
Issued by NWS

Home | Current Version | Previous Version | Text Only | Print | Product List | Glossary Off
Versions: 1 2 3 4 5 6 7 8 9 10 11 12 13 14 15 16 17 18 19 20 21 22 23 24 25 26 27 28 29 30 31 32 33 34 35 36 37 38 39 40 41 42 43 44 45 46 47 48 49 50

000
ASUS43 KLMK 260302
RWRKY
KENTUCKY REGIONAL WEATHER ROUNDUP
NATIONAL WEATHER SERVICE LOUISVILLE KY
1000 PM EST SUN JAN 25 2015

NOTE "FAIR" INDICATES FEW OR NO CLOUDS BELOW 12,000 FEET
WITH NO SIGNIFICANT WEATHER AND/OR OBSTRUCTIONS TO VISIBILITY.

KYZ001>023-026-027-061>063-070>075-260400-
WESTERN AND SOUTH CENTRAL KENTUCKY

CITY           SKY/WX    TMP DP  RH WIND       PRES   REMARKS
PADUCAH        CLOUDY    40  38  93 NW21G33   29.79R FOG     WCI  30
HENDERSON      CLOUDY    39  37  93 NW10G18   29.74R WCI  32
OWENSBORO      LGT RAIN  40  40 100 NW9       29.71R WCI  34
HOPKINSVILLE   LGT RAIN  44  42  93 W10       29.71R
BOWLING GREEN  LGT RAIN  40  37  89 SW5       29.69S
GLASGOW        NOT AVBL
$$

KYZ024-025-028>034-038-045-046-053-260400-
NORTH CENTRAL KENTUCKY

CITY           SKY/WX    TMP DP  RH WIND       PRES   REMARKS
LOUISVILLE/SDF LGT RAIN  41  39  93 N7        29.68R FOG
LOUISVILLE/LOU LGT RAIN  41  39  93 N6        29.68R FOG
FORT KNOX      LGT RAIN  40  39  96 NW2       29.66R FOG
$$

KYZ035>037-039>044-047>052-055>060-089>105-260400-
NORTHEAST KENTUCKY

CITY           SKY/WX    TMP DP  RH WIND       PRES   REMARKS
LEXINGTON      LGT RAIN  40  39  97 SE6       29.65F FOG
COVINGTON      LGT RAIN  39  37  92 NE12      29.68S FOG     WCI  32
FRANKFORT      CLOUDY    41  40  96 VRB6      29.64S FOG
$$

KYZ054-064>069-076>088-106>120-260400-
SOUTHEAST KENTUCKY

CITY           SKY/WX    TMP DP  RH WIND       PRES   REMARKS
JACKSON        LGT RAIN  43  36  76 SE5       29.66F
LONDON         LGT RAIN  44  37  76 SW9       29.68R
SOMERSET       NOT AVBL
MIDDLESBORO    NOT AVBL
MONTICELLO     CLOUDY    45  42  89 S10       29.69F
$$



USA.gov is the U.S. government's official web portal to all federal, state and local government web resources and services.